TimeCST,TemperatureF,Dew PointF,Humidity,Sea Level PressureIn,VisibilityMPH,Wind Direction,Wind SpeedMPH,Gust SpeedMPH,PrecipitationIn,Events,Conditions,WindDirDegrees,DateUTC
12:00 AM,68.0,62.6,83,29.89,-9999.0,North,-9999.0,-,N/A,,Clear,0,1998-01-02 06:00:00
4:00 AM,69.8,60.8,73,29.83,-9999.0,East,17.3,-,N/A,,Clear,100,1998-01-02 10:00:00
5:00 AM,69.8,62.6,78,29.83,-9999.0,ESE,15.0,34.5,N/A,,Clear,120,1998-01-02 11:00:00
6:00 AM,69.8,62.6,78,29.86,-9999.0,ESE,11.5,23.0,N/A,,Clear,110,1998-01-02 12:00:00
7:00 AM,71.6,64.4,78,29.92,6.2,East,23.0,34.5,N/A,,Partly Cloudy,100,1998-01-02 13:00:00
8:00 AM,75.2,66.2,73,29.92,6.2,East,33.4,-,N/A,,Partly Cloudy,100,1998-01-02 14:00:00
9:00 AM,77.0,66.2,69,29.95,6.2,East,21.9,33.4,N/A,,Partly Cloudy,90,1998-01-02 15:00:00
10:00 AM,80.6,68.0,65,29.92,6.2,ESE,27.6,-,N/A,,Partly Cloudy,110,1998-01-02 16:00:00
11:00 AM,80.6,62.6,54,29.92,6.2,ENE,28.8,-,N/A,,Partly Cloudy,70,1998-01-02 17:00:00
12:00 PM,82.4,66.2,58,29.89,6.2,East,31.1,-,N/A,,Partly Cloudy,80,1998-01-02 18:00:00
1:00 PM,82.4,66.2,58,29.86,6.2,East,16.1,27.6,N/A,,Partly Cloudy,80,1998-01-02 19:00:00
2:00 PM,80.6,66.2,61,29.83,6.2,East,18.4,29.9,N/A,,Partly Cloudy,80,1998-01-02 20:00:00
3:00 PM,80.6,64.4,58,29.83,-9999.0,East,17.3,-,N/A,,Clear,90,1998-01-02 21:00:00
4:00 PM,78.8,62.6,57,29.83,-9999.0,East,18.4,-,N/A,,Clear,100,1998-01-02 22:00:00
5:00 PM,75.2,62.6,65,29.83,-9999.0,East,17.3,-,N/A,,Clear,80,1998-01-02 23:00:00
6:00 PM,-9999,-9999,N/A,29.83,-9999.0,East,20.7,-,N/A,,Unknown,90,1998-01-03 00:00:00
7:00 PM,71.6,60.8,69,29.86,-9999.0,East,20.7,-,N/A,,Clear,100,1998-01-03 01:00:00
8:00 PM,71.6,62.6,73,29.89,-9999.0,East,20.7,32.2,N/A,,Clear,100,1998-01-03 02:00:00
9:00 PM,69.8,62.6,78,29.86,-9999.0,East,20.7,32.2,N/A,,Clear,100,1998-01-03 03:00:00
10:00 PM,69.8,60.8,73,29.86,-9999.0,ESE,13.8,27.6,N/A,,Clear,110,1998-01-03 04:00:00
11:00 PM,69.8,60.8,73,29.86,-9999.0,ESE,23.0,-,N/A,,Clear,120,1998-01-03 05:00:00